User: anonymous   Login
Location: Starry Hill Observatory
(46.8582°N, 122.3590°W)
Time: 20:03:15
(UTC-08:00)
Language:

Cosmos 1300 Rocket - Orbit

View from above orbital plane
View from above orbital plane
View from above satellite
View from above satellite

Ground track
Ground track

The orbit data is extracted from the following two-line orbital elements,

1 12786U 81082B   15030.67205244  .00000411  00000-0  46047-4 0  1052
2 12786 082.4864 066.1381 0016632 237.4589 122.5020 14.84343750805957
Epoch (UTC): 30 January 2015 16:07:45
Eccentricity: 0.0016632
inclination: 82.4864°
perigee height: 604 km
apogee height: 627 km
right ascension of ascending node: 66.1381°
argument of perigee: 237.4589°
revolutions per day: 14.84343750
mean anomaly at epoch: 122.5020°
orbit number at epoch: 80595

The dashed part of the orbit path shows where the satellite is in the earth's shadow,  

DLR